TimeAKDT,TemperatureF,Dew PointF,Humidity,Sea Level PressureIn,VisibilityMPH,Wind Direction,Wind SpeedMPH,Gust SpeedMPH,PrecipitationIn,Events,Conditions,WindDirDegrees,DateUTC
12:53 AM,42.1,37.0,82,30.25,10.0,Calm,Calm,-,N/A,,Overcast,0,2012-10-03 08:53:00
1:53 AM,42.1,37.9,85,30.26,10.0,Calm,Calm,-,N/A,,Overcast,0,2012-10-03 09:53:00
2:53 AM,42.1,37.9,85,30.25,10.0,Calm,Calm,-,N/A,,Overcast,0,2012-10-03 10:53:00
3:53 AM,41.0,37.0,86,30.26,10.0,Calm,Calm,-,N/A,,Overcast,0,2012-10-03 11:53:00
4:53 AM,41.0,37.0,86,30.26,10.0,Calm,Calm,-,N/A,,Overcast,0,2012-10-03 12:53:00
5:53 AM,39.9,37.9,93,30.26,10.0,Calm,Calm,-,N/A,,Overcast,0,2012-10-03 13:53:00
6:53 AM,41.0,37.9,89,30.26,10.0,Calm,Calm,-,N/A,,Overcast,0,2012-10-03 14:53:00
7:53 AM,41.0,37.9,89,30.26,10.0,Calm,Calm,-,N/A,,Overcast,0,2012-10-03 15:53:00
8:53 AM,41.0,37.0,86,30.25,10.0,Calm,Calm,-,N/A,,Overcast,0,2012-10-03 16:53:00
9:53 AM,42.1,37.0,82,30.25,10.0,NW,3.5,-,N/A,,Overcast,320,2012-10-03 17:53:00
10:53 AM,42.1,37.0,82,30.25,10.0,WNW,4.6,-,N/A,,Overcast,300,2012-10-03 18:53:00
11:53 AM,43.0,36.0,76,30.24,10.0,NNW,4.6,-,N/A,,Mostly Cloudy,330,2012-10-03 19:53:00
12:53 PM,45.0,37.0,74,30.23,10.0,WNW,5.8,-,N/A,,Overcast,300,2012-10-03 20:53:00
1:53 PM,46.9,36.0,66,30.19,10.0,NW,5.8,-,N/A,,Mostly Cloudy,310,2012-10-03 21:53:00
2:53 PM,46.9,37.9,71,30.17,10.0,WNW,5.8,-,N/A,,Mostly Cloudy,300,2012-10-03 22:53:00
3:53 PM,45.0,41.0,86,30.19,5.0,WNW,5.8,-,0.02,Rain,Light Rain,290,2012-10-03 23:53:00
4:53 PM,44.1,41.0,89,30.17,8.0,North,5.8,-,0.04,Rain,Light Rain,350,2012-10-04 00:53:00
5:53 PM,43.0,41.0,93,30.14,10.0,NNW,9.2,-,0.01,Rain,Light Rain,340,2012-10-04 01:53:00
6:53 PM,43.0,42.1,97,30.11,6.0,WNW,8.1,-,0.04,Rain,Rain,290,2012-10-04 02:53:00
7:15 PM,44.6,42.8,93,30.08,5.0,NW,8.1,-,0.02,Rain,Rain,320,2012-10-04 03:15:00
7:53 PM,44.1,43.0,96,30.09,5.0,NW,6.9,-,0.06,Rain,Rain,310,2012-10-04 03:53:00
8:53 PM,45.0,43.0,93,30.07,10.0,North,9.2,-,N/A,Rain,Light Rain,360,2012-10-04 04:53:00
9:53 PM,46.0,44.1,93,30.04,8.0,NW,5.8,-,0.06,Rain,Light Rain,310,2012-10-04 05:53:00
10:53 PM,46.0,44.1,93,30.04,10.0,Calm,Calm,-,0.01,,Overcast,0,2012-10-04 06:53:00
11:53 PM,46.0,43.0,89,30.04,10.0,WNW,6.9,-,N/A,,Overcast,300,2012-10-04 07:53:00